Simultaneous Nadir Overpasses (SNOs) Predictions

Prediction of SNOs between NOAA-15 and METOP-C Satellite Orbit:

Table of predicted SNOs for the next 14.0 days since TLE Epoch: 8/26/2022
Index Date (NOAA-15) Time (NOAA-15) Lat,Lon (NOAA-15) SZA (NOAA-15 ) Date (METOP-C) Time (METOP-C) Lat,Lon (METOP-C) SZA (METOP-C ) Distance(km) Time Diff (sec)
1 09/04/2022 15:30:02 81.08, -14.51 75.98 09/04/2022 15:28:52 81.08, -14.36 75.96 2.63 70
2 09/04/2022 16:20:34 -81.08, 152.94 104.01 09/04/2022 16:19:32 -81.08, 152.99 104.03 0.95 62
3 09/04/2022 17:11:04 81.09, -39.90 75.99 09/04/2022 17:10:14 81.07, -39.88 75.96 1.70 50
4 09/04/2022 18:01:36 -81.08, 127.56 103.99 09/04/2022 18:00:54 -81.07, 127.48 104.02 1.81 42
5 09/04/2022 18:52:05 81.08, -64.91 76.04 09/04/2022 18:51:35 81.08, -65.02 76.02 1.97 30
6 09/04/2022 19:42:38 -81.09, 102.19 103.97 09/04/2022 19:42:15 -81.08, 102.34 103.97 2.73 23
7 09/04/2022 20:33:07 81.08, -90.29 76.06 09/04/2022 20:32:56 81.09, -90.16 76.07 2.32 11
8 09/04/2022 21:23:39 -81.08, 77.18 103.93 09/04/2022 21:23:36 -81.09, 77.20 103.92 1.29 3
9 09/04/2022 22:14:09 81.09,-115.67 76.07 09/04/2022 22:14:18 81.08,-115.67 76.07 0.68 9
10 09/04/2022 23:04:41 -81.08, 51.81 103.91 09/04/2022 23:04:58 -81.08, 51.69 103.92 2.07 17
11 09/04/2022 23:55:10 81.08,-140.68 76.12 09/04/2022 23:55:39 81.09,-140.81 76.12 2.69 29
12 09/05/2022 00:45:43 -81.09, 26.43 103.89 09/05/2022 00:46:19 -81.09, 26.54 103.86 1.99 36
13 09/05/2022 01:36:12 81.08,-166.06 76.13 09/05/2022 01:37:00 81.10,-165.95 76.18 2.46 48
14 09/05/2022 02:26:45 -81.09, 1.05 103.87 09/05/2022 02:27:41 -81.08, 1.03 103.86 1.11 56
15 09/05/2022 03:17:14 81.09, 168.56 76.15 09/05/2022 03:18:22 81.09, 168.53 76.18 0.52 68



Historial Predications of SNOs between NOAA-15 and METOP-C
